• In Latvia
  • List of Countries
  • For 7 days
  • Water Temperature
  • Satellite Maps
  • Weather Map
  • Weather Widgets
  • user-avatar
    Login

    Hourly Weather Thimphu

    Today, 24 November, Friday

    Time Temperature Precipitation Wind Pressure Humidity
    00:00 +2°C° 0 mm 2 mps 522 mmHg 92%
    01:00 +2°C° 0.1 mm 2 mps 522 mmHg 91%
    02:00 +2°C° 0.1 mm 2 mps 521 mmHg 89%
    03:00 +2°C° 0.1 mm 2 mps 521 mmHg 87%
    04:00 +2°C° 0 mm 1 mps 521 mmHg 86%
    05:00 +2°C° 0 mm 1 mps 521 mmHg 85%
    06:00 +1°C° 0 mm 1 mps 521 mmHg 84%
    07:00 +3°C° 0 mm 1 mps 523 mmHg 74%
    08:00 +5°C° 0 mm 1 mps 524 mmHg 63%
    09:00 +7°C° 0 mm 1 mps 525 mmHg 53%
    10:00 +8°C° 0 mm 1 mps 526 mmHg 50%
    11:00 +8°C° 0 mm 2 mps 526 mmHg 47%
    12:00 +9°C° 0 mm 2 mps 526 mmHg 44%
    13:00 +9°C° 0 mm 2 mps 525 mmHg 47%
    14:00 +8°C° 0 mm 2 mps 525 mmHg 51%
    15:00 +7°C° 0 mm 2 mps 524 mmHg 55%
    16:00 +5°C° 0 mm 2 mps 523 mmHg 66%
    17:00 +4°C° 0 mm 1 mps 522 mmHg 78%
    18:00 +2°C° 0 mm 1 mps 521 mmHg 89%
    19:00 +2°C° 0 mm 1 mps 521 mmHg 86%
    20:00 +2°C° 0 mm 1 mps 521 mmHg 83%
    21:00 +2°C° 0 mm 1 mps 522 mmHg 79%
    22:00 +2°C° 0 mm 1 mps 522 mmHg 76%
    23:00 +1°C° 0 mm 2 mps 522 mmHg 72%

    Tomorrow, 25 November, Saturday

    Time Temperature Precipitation Wind Pressure Humidity
    00:00 -1°C° 0 mm 2 mps 522 mmHg 68%
    01:00 -1°C° 0 mm 2 mps 521 mmHg 65%
    02:00 -1°C° 0 mm 2 mps 521 mmHg 62%
    03:00 -1°C° 0 mm 2 mps 521 mmHg 59%
    04:00 -1°C° 0 mm 2 mps 521 mmHg 56%
    05:00 -1°C° 0 mm 2 mps 521 mmHg 54%
    06:00 -1°C° 0 mm 2 mps 521 mmHg 51%
    07:00 +2°C° 0 mm 2 mps 523 mmHg 46%
    08:00 +6°C° 0 mm 1 mps 525 mmHg 41%
    09:00 +8°C° 0 mm 1 mps 527 mmHg 36%
    10:00 +8°C° 0 mm 2 mps 527 mmHg 38%
    11:00 +9°C° 0 mm 2 mps 527 mmHg 39%
    12:00 +10°C° 0 mm 2 mps 527 mmHg 40%
    13:00 +9°C° 0 mm 2 mps 527 mmHg 46%
    14:00 +9°C° 0 mm 2 mps 526 mmHg 52%
    15:00 +8°C° 0 mm 2 mps 525 mmHg 57%
    16:00 +6°C° 0 mm 2 mps 524 mmHg 68%
    17:00 +4°C° 0 mm 2 mps 523 mmHg 79%
    18:00 +3°C° 0 mm 1 mps 523 mmHg 90%
    19:00 +3°C° 0 mm 1 mps 523 mmHg 89%
    20:00 +3°C° 0 mm 1 mps 523 mmHg 87%
    21:00 +3°C° 0 mm 1 mps 523 mmHg 85%
    22:00 +2°C° 0 mm 1 mps 523 mmHg 84%
    23:00 +2°C° 0 mm 1 mps 523 mmHg 82%

    Day after tomorrow, 26 November, Sunday

    Time Temperature Precipitation Wind Pressure Humidity
    00:00 +2°C° 0 mm 1 mps 523 mmHg 81%
    01:00 +2°C° 0 mm 1 mps 523 mmHg 80%
    02:00 +1°C° 0 mm 1 mps 522 mmHg 79%
    03:00 +1°C° 0 mm 1 mps 522 mmHg 78%
    04:00 +1°C° 0 mm 1 mps 522 mmHg 77%
    05:00 +1°C° 0 mm 1 mps 522 mmHg 76%
    06:00 +1°C° 0 mm 1 mps 522 mmHg 75%
    07:00 +3°C° 0 mm 1 mps 523 mmHg 67%
    08:00 +5°C° 0 mm 1 mps 525 mmHg 58%
    09:00 +8°C° 0 mm 1 mps 527 mmHg 50%
    10:00 +8°C° 0 mm 2 mps 527 mmHg 48%
    11:00 +9°C° 0 mm 2 mps 527 mmHg 46%
    12:00 +9°C° 0 mm 3 mps 527 mmHg 44%
    13:00 +9°C° 0 mm 3 mps 526 mmHg 48%
    14:00 +8°C° 0 mm 3 mps 525 mmHg 53%
    15:00 +7°C° 0 mm 3 mps 524 mmHg 57%
    16:00 +5°C° 0 mm 2 mps 523 mmHg 67%
    17:00 +4°C° 0 mm 2 mps 522 mmHg 77%
    18:00 +2°C° 0 mm 2 mps 521 mmHg 87%
    19:00 +1°C° 0 mm 2 mps 521 mmHg 86%
    20:00 +1°C° 0 mm 2 mps 522 mmHg 85%
    21:00 +2°C° 0 mm 1 mps 522 mmHg 84%
    22:00 +1°C° 0 mm 1 mps 521 mmHg 83%
    23:00 +1°C° 0 mm 1 mps 521 mmHg 82%

    27 November, Monday

    Time Temperature Precipitation Wind Pressure Humidity
    00:00 +1°C° 0 mm 1 mps 521 mmHg 81%
    01:00 +1°C° 0 mm 1 mps 520 mmHg 80%
    02:00 0°C° 0 mm 1 mps 520 mmHg 79%
    03:00 0°C° 0 mm 1 mps 520 mmHg 78%
    04:00 0°C° 0 mm 1 mps 520 mmHg 75%
    05:00 0°C° 0 mm 1 mps 520 mmHg 73%
    06:00 0°C° 0 mm 1 mps 520 mmHg 71%
    07:00 +2°C° 0 mm 1 mps 521 mmHg 63%
    08:00 +5°C° 0 mm 1 mps 523 mmHg 54%
    09:00 +7°C° 0 mm 1 mps 525 mmHg 46%
    10:00 +7°C° 0 mm 2 mps 525 mmHg 46%
    11:00 +8°C° 0 mm 2 mps 525 mmHg 45%
    12:00 +8°C° 0 mm 3 mps 525 mmHg 45%
    13:00 +7°C° 0.1 mm 3 mps 524 mmHg 50%
    14:00 +7°C° 0.1 mm 3 mps 523 mmHg 56%
    15:00 +5°C° 0.1 mm 3 mps 522 mmHg 62%
    16:00 +4°C° 0.1 mm 2 mps 521 mmHg 71%
    17:00 +2°C° 0.1 mm 2 mps 520 mmHg 80%
    18:00 +1°C° 0.1 mm 1 mps 519 mmHg 90%
    19:00 +1°C° 0.1 mm 1 mps 519 mmHg 89%
    20:00 +1°C° 0.1 mm 1 mps 519 mmHg 89%
    21:00 +1°C° 0.1 mm 1 mps 520 mmHg 89%
    22:00 0°C° 0.1 mm 1 mps 519 mmHg 88%
    23:00 0°C° 0.1 mm 1 mps 519 mmHg 88%

    28 November, Tuesday

    Time Temperature Precipitation Wind Pressure Humidity
    00:00 0°C° 0.1 mm 1 mps 519 mmHg 87%
    01:00 0°C° 0 mm 1 mps 518 mmHg 87%
    02:00 -1°C° 0 mm 1 mps 518 mmHg 87%
    03:00 -1°C° 0 mm 1 mps 518 mmHg 86%
    04:00 -1°C° 0 mm 1 mps 518 mmHg 85%
    05:00 -2°C° 0 mm 1 mps 518 mmHg 84%
    06:00 -2°C° 0 mm 1 mps 518 mmHg 83%
    07:00 0°C° 0 mm 1 mps 519 mmHg 73%
    08:00 +2°C° 0 mm 1 mps 521 mmHg 62%
    09:00 +4°C° 0 mm 1 mps 523 mmHg 52%
    10:00 +4°C° 0 mm 2 mps 523 mmHg 52%
    11:00 +5°C° 0 mm 2 mps 523 mmHg 51%
    12:00 +5°C° 0 mm 3 mps 523 mmHg 51%
    13:00 +4°C° 0.1 mm 3 mps 522 mmHg 54%
    14:00 +5°C° 0.1 mm 2 mps 521 mmHg 57%
    15:00 +4°C° 0.1 mm 2 mps 521 mmHg 61%
    16:00 +3°C° 0 mm 2 mps 520 mmHg 70%
    17:00 +2°C° 0 mm 1 mps 519 mmHg 79%
    18:00 0°C° 0 mm 1 mps 519 mmHg 88%
    19:00 0°C° 0 mm 1 mps 519 mmHg 85%
    20:00 0°C° 0 mm 1 mps 519 mmHg 83%
    21:00 -2°C° 0 mm 2 mps 520 mmHg 80%
    22:00 -2°C° 0 mm 2 mps 520 mmHg 74%
    23:00 -2°C° 0 mm 2 mps 520 mmHg 69%

    29 November, Wednesday

    Time Temperature Precipitation Wind Pressure Humidity
    00:00 -2°C° 0 mm 2 mps 519 mmHg 64%
    01:00 -3°C° 0 mm 2 mps 519 mmHg 61%
    02:00 -3°C° 0 mm 2 mps 519 mmHg 59%
    03:00 -3°C° 0 mm 2 mps 519 mmHg 56%
    04:00 -3°C° 0 mm 2 mps 519 mmHg 56%
    05:00 -3°C° 0 mm 2 mps 519 mmHg 55%
    06:00 -3°C° 0 mm 2 mps 519 mmHg 55%
    07:00 -1°C° 0 mm 2 mps 521 mmHg 51%
    08:00 +4°C° 0 mm 1 mps 523 mmHg 47%
    09:00 +6°C° 0 mm 1 mps 525 mmHg 42%
    10:00 +6°C° 0 mm 2 mps 525 mmHg 43%
    11:00 +7°C° 0 mm 2 mps 525 mmHg 43%
    12:00 +8°C° 0 mm 2 mps 525 mmHg 43%
    13:00 +7°C° 0 mm 2 mps 524 mmHg 47%
    14:00 +7°C° 0 mm 2 mps 523 mmHg 52%
    15:00 +6°C° 0 mm 2 mps 523 mmHg 56%
    16:00 +4°C° 0 mm 2 mps 522 mmHg 67%
    17:00 +2°C° 0 mm 2 mps 521 mmHg 77%
    18:00 +1°C° 0 mm 1 mps 520 mmHg 87%
    19:00 +1°C° 0 mm 1 mps 520 mmHg 86%
    20:00 +1°C° 0 mm 1 mps 520 mmHg 85%
    21:00 +1°C° 0 mm 1 mps 520 mmHg 84%
    22:00 0°C° 0 mm 1 mps 520 mmHg 83%
    23:00 0°C° 0 mm 1 mps 520 mmHg 82%
    Show more